Location: Góry Miechowskie
(50.3599°N, 20.1803°E)
Time: 14:48:23
(UTC+00:00)

Vanguard 1 Rocket - Pass Details

Date: 20 September 2024
Orbit: 650 x 4218 km, 34.3° (Epoch: 07 October)

Event Time Altitude Azimuth Distance (km) Brightness Sun altitude
Rises 02:09:40 0° 236° (WSW) 5,208 - -21.1°
Reaches altitude 10° 02:12:40 10° 230° (SW) 4,593 - -20.7°
Exits shadow 02:16:03 22° 219° (SW) 4,067 10.1 -20.2°
Maximum altitude 02:25:39 45° 163° (SSE) 3,874 10.4 -18.8°
Drops below altitude 10° 02:47:03 10° 102° (ESE) 7,314 12.8 -15.7°
Sets 02:53:32 0° 98° (E) 8,459 13.5 -14.8°
